QPF
0.01 0.00 0.00 0.00 0.00 0.00 0.00 0.00 0.00 0.00 0.00 0.00 0.00 0.00 0.00 0.00 0.00 0.00 0.00 0.00 0.00 0.00 0.00 0.00 0.00 0.00 0.00 0.00 0.00 0.00 0.00 0.00 0.00
0.02 0.00 0.00 0.00 0.00 0.00 0.00 0.00 0.00 0.00 0.00 0.00 0.00 0.00 0.00 0.00 0.00 0.00 0.00 0.00 0.00 0.00 0.00 0.00 0.00 0.00 0.00 0.00 0.00 0.00 0.00 0.00 0.00
0.01 0.00 0.00 0.00 0.00 0.00 0.00 0.00 0.00 0.00 0.00 0.00 0.00 0.00 0.00 0.00 0.00 0.00 0.00 0.00 0.00 0.00 0.00 0.00 0.00 0.00 0.00 0.00 0.00 0.00 0.00 0.00 0.00
0.00 0.00 0.00 0.00 0.00 0.00 0.00 0.00 0.00 0.00 0.00 0.00 0.00 0.00 0.00 0.00 0.00 0.00 0.00 0.00 0.00 0.00 0.00 0.00 0.00 0.00 0.00 0.00 0.00 0.00 0.00 0.00 0.00
0.00 0.00 0.00 0.00 0.00 0.00 0.00 0.00 0.00 0.00 0.00 0.00 0.00 0.00 0.00 0.00 0.00 0.00 0.00 0.00 0.00 0.00 0.00 0.00 0.00 0.00 0.00 0.00 0.00 0.00 0.00 0.00 0.00
0.00 0.00 0.00 0.00 0.00 0.00 0.00 0.00 0.00 0.00 0.00 0.00 0.00 0.00 0.00 0.00 0.00 0.00 0.00 0.00 0.00 0.00 0.00 0.00 0.00 0.00 0.00 0.00 0.00 0.00 0.00 0.00 0.00
0.00 0.00 0.00 0.00 0.00 0.00 0.00 0.00 0.00 0.00 0.00 0.00 0.00 0.00 0.00 0.00 0.00 0.00 0.00 0.00 0.00 0.00 0.00 0.00 0.00 0.00 0.00 0.00 0.00 0.00 0.00 0.00 0.00
0.00 0.00 0.00 0.00 0.00 0.00 0.00 0.00 0.00 0.00 0.00 0.00 0.00 0.00 0.00 0.00 0.00 0.00 0.00 0.00 0.00 0.00 0.00 0.00 0.00 0.00 0.00 0.00 0.00 0.00 0.00 0.00 0.00
0.00 0.00 0.00 0.00 0.00 0.00 0.00 0.00 0.00 0.00 0.00 0.00 0.00 0.00 0.00 0.00 0.00 0.00 0.00 0.00 0.00 0.00 0.00 0.01 0.02 0.01 0.01 0.00 0.00 0.00 0.00 0.00 0.00
0.00 0.00 0.00 0.00 0.00 0.00 0.00 0.00 0.00 0.00 0.00 0.00 0.00 0.00 0.00 0.00 0.00 0.00 0.00 0.00 0.00 0.00 0.00 0.00 0.00 0.00 0.01 0.01 0.01 0.01 0.00 0.00 0.00
0.01 0.00 0.00 0.00 0.00 0.00 0.00 0.00 0.00 0.00 0.00 0.00 0.00 0.00 0.00 0.00 0.00 0.00 0.00 0.00 0.00 0.00 0.00 0.00 0.00 0.00 0.00 0.01 0.01 0.00 0.00 0.00 0.00
0.00 0.00 0.00 0.00 0.00 0.00 0.00 0.00 0.00 0.00 0.00 0.00 0.00 0.00 0.00 0.00 0.00 0.00 0.00 0.00 0.00 0.00 0.00 0.00 0.00 0.00 0.00 0.01 0.01 0.00 0.00 0.00 0.00
0.01 0.00 0.00 0.00 0.00 0.00 0.00 0.00 0.00 0.00 0.00 0.00 0.00 0.00 0.00 0.00 0.00 0.00 0.00 0.00 0.00 0.00 0.00 0.00 0.00 0.00 0.00 0.00 0.02 0.04 0.00 0.00 0.00
0.02 0.00 0.00 0.00 0.00 0.00 0.00 0.00 0.00 0.00 0.00 0.00 0.00 0.00 0.00 0.00 0.00 0.00 0.00 0.00 0.00 0.00 0.00 0.00 0.00 0.00 0.00 0.00 0.03 0.03 0.00 0.00 0.00
0.05 0.00 0.00 0.00 0.00 0.00 0.00 0.00 0.00 0.00 0.00 0.00 0.00 0.00 0.00 0.00 0.00 0.00 0.00 0.00 0.00 0.00 0.00 0.00 0.00 0.00 0.00 0.00 0.03 0.00 0.00 0.00 0.00
0.08 0.00 0.00 0.00 0.00 0.00 0.00 0.00 0.00 0.00 0.00 0.00 0.00 0.00 0.00 0.00 0.00 0.00 0.00 0.00 0.00 0.00 0.00 0.00 0.00 0.00 0.00 0.00 0.00 0.00 0.00 0.00 0.00
0.17 0.02 0.00 0.00 0.00 0.00 0.00 0.00 0.00 0.00 0.00 0.00 0.00 0.00 0.00 0.00 0.00 0.00 0.00 0.00 0.00 0.00 0.00 0.00 0.00 0.00 0.00 0.00 0.00 0.00 0.00 0.00 0.00
0.04 0.04 0.01 0.00 0.00 0.00 0.00 0.00 0.00 0.00 0.00 0.00 0.00 0.00 0.00 0.00 0.00 0.00 0.00 0.00 0.00 0.00 0.00 0.00 0.00 0.00 0.00 0.00 0.00 0.00 0.00 0.00 0.00
0.05 0.04 0.02 0.00 0.00 0.00 0.01 0.02 0.03 0.02 0.02 0.03 0.01 0.01 0.00 0.00 0.00 0.00 0.00 0.00 0.00 0.00 0.00 0.00 0.00 0.00 0.00 0.00 0.00 0.00 0.00 0.00 0.00
0.12 0.06 0.02 0.00 0.00 0.01 0.03 0.07 0.11 0.14 0.13 0.15 0.14 0.12 0.08 0.04 0.01 0.00 0.00 0.00 0.00 0.00 0.00 0.00 0.00 0.00 0.00 0.00 0.00 0.00 0.00 0.00 0.00
MSLP
1015.80 1016.13 1016.42 1016.72 1016.96 1017.25 1017.58 1017.75 1017.88 1018.09 1018.23 1018.18 1018.11 1018.22 1018.40 1018.55 1018.65 1018.66 1018.64 1018.64 1018.45 1018.52 1018.60 1018.59 1018.56 1018.54 1018.56 1018.52 1018.50 1018.45 1018.43 1018.38 1018.31
1015.81 1016.19 1016.59 1016.89 1017.31 1017.55 1017.76 1017.89 1018.03 1018.18 1018.39 1018.41 1018.41 1018.56 1018.69 1018.93 1019.08 1019.04 1018.85 1018.69 1018.68 1018.70 1018.75 1018.79 1018.78 1018.76 1018.74 1018.77 1018.76 1018.67 1018.58 1018.53 1018.45
1015.97 1016.30 1016.73 1017.00 1017.17 1017.56 1017.87 1018.01 1018.09 1018.33 1018.45 1018.59 1018.68 1018.81 1018.89 1019.06 1019.24 1019.22 1019.16 1018.87 1018.79 1018.91 1018.97 1018.97 1018.97 1019.00 1019.04 1019.05 1019.04 1018.94 1018.82 1018.75 1018.68
1016.14 1016.31 1016.78 1017.13 1017.36 1017.50 1017.83 1018.07 1018.10 1018.35 1018.57 1018.72 1018.80 1018.91 1019.06 1019.22 1019.23 1019.18 1019.19 1019.06 1018.96 1018.95 1019.10 1019.17 1019.22 1019.21 1019.23 1019.29 1019.36 1019.33 1019.18 1019.11 1018.98
1016.16 1016.49 1016.78 1017.08 1017.36 1017.53 1017.81 1017.99 1018.20 1018.36 1018.60 1018.82 1018.87 1018.92 1019.17 1019.36 1019.36 1019.33 1019.28 1019.06 1019.12 1019.14 1019.14 1019.24 1019.36 1019.38 1019.39 1019.40 1019.37 1019.35 1019.34 1019.24 1019.17
1016.27 1016.41 1016.79 1017.02 1017.34 1017.55 1017.75 1017.92 1018.11 1018.37 1018.60 1018.77 1018.95 1019.01 1019.14 1019.30 1019.36 1019.38 1019.21 1019.15 1019.20 1019.27 1019.28 1019.28 1019.33 1019.42 1019.39 1019.41 1019.40 1019.41 1019.36 1019.34 1019.32
1016.20 1016.47 1016.68 1016.98 1017.25 1017.55 1017.70 1017.89 1018.16 1018.39 1018.72 1018.83 1018.94 1019.12 1019.11 1019.23 1019.26 1019.21 1019.09 1019.10 1019.12 1019.31 1019.38 1019.37 1019.35 1019.40 1019.42 1019.37 1019.47 1019.42 1019.42 1019.37 1019.38
1016.13 1016.58 1016.59 1016.81 1017.10 1017.55 1017.77 1017.94 1018.18 1018.44 1018.71 1018.83 1018.92 1019.09 1019.15 1019.16 1019.11 1019.00 1019.03 1018.98 1019.04 1019.14 1019.31 1019.35 1019.36 1019.36 1019.38 1019.39 1019.39 1019.40 1019.42 1019.48 1019.46
1015.90 1016.17 1016.51 1016.63 1016.85 1017.32 1017.85 1018.09 1018.19 1018.35 1018.58 1018.74 1018.77 1018.84 1018.91 1019.01 1018.99 1018.97 1018.96 1018.97 1018.86 1018.95 1018.96 1019.09 1019.15 1019.15 1019.12 1019.17 1019.19 1019.30 1019.34 1019.32 1019.34
1015.48 1015.65 1015.96 1016.45 1016.78 1016.96 1017.56 1017.95 1018.20 1018.37 1018.43 1018.54 1018.63 1018.63 1018.76 1018.80 1018.88 1018.86 1018.78 1018.72 1018.67 1018.71 1018.80 1018.74 1018.87 1018.90 1018.85 1018.89 1018.96 1019.07 1019.19 1019.33 1019.37
1014.98 1015.26 1015.53 1016.20 1016.53 1016.88 1017.15 1017.64 1017.96 1018.21 1018.37 1018.36 1018.35 1018.27 1018.39 1018.50 1018.58 1018.58 1018.48 1018.37 1018.46 1018.45 1018.45 1018.56 1018.64 1018.73 1018.61 1018.59 1018.74 1018.96 1019.16 1019.41 1019.53
1014.34 1014.81 1015.19 1015.64 1016.30 1016.75 1017.15 1017.47 1017.74 1018.02 1018.14 1018.28 1018.12 1018.01 1017.99 1018.09 1018.12 1018.17 1018.24 1018.24 1018.31 1018.32 1018.35 1018.29 1018.28 1018.53 1018.60 1018.49 1018.56 1018.87 1019.18 1019.41 1019.52
1013.80 1014.33 1014.72 1015.15 1016.07 1016.58 1017.02 1017.33 1017.72 1017.84 1018.00 1018.00 1017.84 1017.81 1017.62 1017.65 1017.66 1017.72 1017.80 1018.04 1018.14 1018.23 1018.29 1018.29 1018.31 1018.32 1018.39 1018.35 1018.37 1018.81 1019.16 1019.35 1019.49
1013.42 1013.56 1014.22 1014.90 1015.64 1016.22 1016.73 1017.00 1017.35 1017.56 1017.63 1017.66 1017.54 1017.45 1017.37 1017.19 1017.10 1017.25 1017.36 1017.45 1017.73 1018.15 1017.85 1018.14 1018.20 1018.32 1018.14 1018.10 1018.11 1018.68 1019.12 1019.28 1019.47
1012.95 1013.63 1013.68 1014.46 1015.41 1015.91 1016.29 1016.45 1016.85 1016.96 1017.09 1017.31 1017.25 1017.24 1017.07 1017.01 1017.05 1016.90 1016.90 1017.23 1017.48 1018.01 1017.92 1018.04 1018.01 1017.99 1017.92 1017.73 1017.91 1018.52 1019.08 1019.21 1019.29
1012.53 1013.77 1013.72 1014.34 1014.96 1015.09 1015.68 1015.98 1016.27 1016.65 1016.78 1017.16 1017.21 1017.12 1016.97 1016.86 1016.62 1016.63 1016.73 1016.98 1017.28 1017.56 1018.05 1017.93 1018.04 1018.08 1017.75 1017.80 1018.22 1018.55 1018.82 1019.05 1019.27
1011.73 1012.76 1013.12 1014.19 1014.30 1014.76 1015.03 1015.37 1015.57 1015.92 1016.24 1016.74 1017.10 1017.21 1017.22 1017.00 1016.79 1016.86 1017.00 1017.10 1017.14 1017.31 1017.82 1017.74 1018.08 1018.36 1018.27 1018.28 1018.65 1018.88 1019.11 1019.25 1019.25
1011.15 1012.22 1012.88 1013.30 1013.89 1014.18 1014.20 1014.71 1015.11 1015.50 1015.89 1015.94 1016.37 1017.13 1017.07 1017.20 1017.26 1017.10 1017.24 1017.39 1017.44 1017.60 1017.71 1017.68 1017.86 1018.34 1018.69 1018.87 1019.04 1019.14 1019.27 1019.31 1019.18
1011.04 1011.64 1012.03 1012.42 1013.37 1013.60 1013.73 1014.21 1014.55 1015.08 1015.70 1016.16 1016.16 1016.37 1016.53 1017.09 1017.58 1017.31 1017.44 1017.59 1017.80 1017.86 1017.67 1017.46 1017.54 1018.19 1018.46 1018.70 1018.97 1019.07 1019.17 1019.18 1019.02
1010.64 1011.24 1011.38 1012.12 1012.54 1012.96 1013.31 1013.85 1014.07 1014.67 1015.08 1015.48 1016.05 1016.44 1016.82 1016.95 1017.23 1017.38 1017.58 1017.78 1017.58 1017.90 1017.42 1017.36 1017.46 1017.83 1018.48 1018.77 1019.03 1019.19 1019.14 1019.22 1019.08
Thickness
5730 5729 5727 5725 5723 5722 5719 5718 5718 5716 5715 5716 5717 5716 5715 5715 5715 5715 5714 5714 5714 5713 5711 5711 5710 5709 5706 5705 5704 5702 5700 5698 5696
5728 5727 5724 5722 5719 5717 5716 5715 5715 5714 5712 5713 5713 5713 5713 5712 5712 5712 5713 5712 5711 5710 5708 5708 5707 5705 5704 5702 5700 5699 5697 5695 5692
5724 5723 5721 5719 5718 5715 5713 5712 5711 5710 5709 5710 5709 5710 5710 5710 5710 5710 5709 5709 5709 5707 5706 5705 5703 5702 5700 5698 5696 5695 5693 5691 5689
5720 5720 5717 5715 5713 5713 5711 5710 5709 5708 5707 5707 5707 5707 5708 5708 5708 5708 5707 5707 5707 5706 5704 5702 5700 5698 5697 5694 5692 5689 5688 5686 5685
5717 5716 5714 5712 5710 5709 5708 5708 5707 5705 5705 5704 5705 5706 5705 5705 5705 5704 5704 5704 5703 5702 5701 5700 5697 5696 5694 5692 5690 5687 5685 5684 5681
5711 5712 5711 5709 5707 5706 5706 5705 5705 5704 5702 5702 5702 5704 5703 5702 5702 5702 5702 5701 5700 5698 5698 5697 5695 5693 5692 5689 5687 5685 5682 5680 5677
5706 5706 5707 5705 5704 5702 5702 5702 5701 5701 5699 5700 5699 5699 5700 5699 5699 5699 5699 5698 5697 5695 5694 5693 5692 5690 5688 5687 5684 5682 5679 5677 5675
5701 5700 5703 5703 5702 5699 5698 5698 5698 5698 5697 5697 5697 5695 5695 5696 5696 5696 5695 5694 5693 5693 5691 5690 5689 5687 5684 5682 5680 5678 5676 5673 5670
5698 5697 5699 5699 5700 5697 5694 5693 5693 5694 5694 5693 5694 5694 5694 5694 5693 5693 5692 5692 5692 5690 5690 5688 5686 5684 5682 5680 5678 5675 5672 5671 5668
5695 5695 5697 5694 5694 5695 5691 5690 5689 5689 5690 5690 5690 5691 5690 5690 5690 5690 5690 5691 5690 5688 5686 5686 5684 5682 5680 5678 5675 5672 5669 5667 5664
5692 5692 5693 5689 5689 5690 5689 5686 5685 5685 5685 5686 5687 5689 5688 5687 5688 5687 5688 5689 5687 5687 5686 5683 5680 5678 5678 5676 5672 5668 5664 5660 5657
5690 5690 5691 5687 5684 5683 5683 5681 5680 5680 5680 5681 5683 5685 5686 5685 5686 5685 5685 5685 5683 5683 5681 5680 5679 5674 5671 5670 5667 5663 5658 5654 5652
5685 5686 5686 5683 5678 5677 5677 5677 5674 5675 5675 5676 5679 5680 5683 5684 5683 5683 5683 5680 5679 5678 5676 5674 5672 5671 5667 5664 5662 5656 5652 5649 5646
5674 5684 5681 5678 5673 5672 5671 5671 5671 5670 5671 5672 5674 5676 5678 5681 5681 5680 5680 5678 5675 5671 5674 5671 5667 5663 5663 5661 5658 5651 5646 5643 5639
5666 5668 5675 5671 5667 5667 5667 5669 5666 5666 5667 5668 5669 5670 5674 5675 5675 5677 5677 5673 5670 5666 5667 5665 5663 5660 5658 5657 5653 5647 5640 5637 5635
5664 5655 5663 5661 5662 5665 5662 5662 5662 5661 5661 5659 5661 5663 5666 5669 5672 5671 5671 5669 5665 5663 5658 5657 5655 5652 5652 5650 5645 5641 5636 5632 5628
5666 5660 5661 5652 5658 5657 5659 5658 5658 5658 5656 5652 5650 5649 5653 5658 5661 5661 5661 5660 5659 5654 5650 5649 5646 5642 5642 5640 5635 5631 5627 5624 5623
5661 5656 5653 5652 5651 5651 5655 5652 5651 5648 5648 5649 5647 5638 5642 5643 5647 5650 5650 5649 5646 5642 5641 5641 5639 5636 5632 5630 5626 5623 5620 5616 5615
5655 5652 5652 5649 5643 5643 5646 5642 5642 5642 5638 5636 5640 5639 5639 5632 5632 5638 5637 5635 5633 5630 5627 5630 5633 5629 5626 5624 5620 5616 5613 5610 5610
5649 5645 5648 5642 5640 5639 5635 5635 5636 5634 5632 5631 5629 5627 5625 5625 5624 5623 5625 5623 5622 5618 5621 5623 5625 5620 5615 5612 5608 5605 5605 5602 5602